軌道要素
Epoch 2014 Oct. 30.0 TT = JDT 2456960.5
T 2014 Nov. 15.19229 TT MPCW
q 3.8521988 (2000.0) P Q
z -0.0001308 Peri. 76.49733 -0.00980045 +0.90462369
+/-0.0000004 Node 208.12669 -0.78719342 +0.25578993
e 1.0005040 Incl. 64.66970 +0.61662830 +0.34092154
From 876 observations 2013 Apr. 10-2016 Dec. 23, mean residual 0".6.
|